Location: Newark
(23.5328°S, 46.7919°W)
Time: 17:02:48
(UTC+00:00)

Envisat - Pass Details

Date: 14 March 2021
Orbit: 764 x 766 km, 98.1° (Epoch: 17 April)

Event Time Altitude Azimuth Distance (km) Brightness Sun altitude
Rises 06:51:32 0° 59° (ENE) 3,221 6.7 -31.6°
Reaches altitude 10° 06:55:15 10° 87° (E) 2,305 6.3 -30.8°
Maximum altitude 06:57:17 12° 111° (ESE) 2,145 6.2 -30.4°
Drops below altitude 10° 06:59:20 10° 135° (SE) 2,316 6.2 -29.9°
Sets 07:03:04 0° 163° (SSE) 3,251 6.7 -29.1°
